SCP
0 0 0 0 0 0 0 0 0 0 0 0 0 0 0 0 0 0 0 0 0 0 0 0 0 0 0 0 0 0 0 0 0 0 0 0 0 0 0 0 0 0 0
0 0 0 0 0 0 0 0 0 0 0 0 0 0 0 0 0 0 0 0 0 0 0 0 0 0 0 0 0 0 0 0 0 0 0 0 0 0 0 0 0 0 0
0 0 0 0 0 0 0 0 0 0 0 0 0 0 0 0 0 0 0 0 0 0 0 0 0 0 0 0 0 0 0 0 0 0 0 0 0 0 0 0 0 0 0
0 0 0 0 0 0 0 0 0 0 0 0 0 0 0 0 0 0 0 0 0 0 0 0 0 0 0 0 0 0 0 0 0 0 0 0 0 0 0 0 0 0 0
0 0 0 0 0 0 0 0 0 0 0 0 0 0 0 0 0 0 0 0 0 0 0 0 0 0 0 0 0 0 0 0 0 0 0 0 0 0 0 0 0 0 0
0 0 0 0 0 0 0 0 0 0 0 0 0 0 0 0 0 0 0 0 0 0 0 0 0 0 0 0 0 0 0 0 0 0 0 0 0 0 0 0 0 0 0
0 0 0 0 0 0 0 0 0 0 0 0 0 0 0 0 0 0 0 0 0 0 0 0 0 0 0 0 0 0 0 0 0 0 0 0 0 0 0 0 0 0 0
0 0 0 0 0 0 0 0 0 0 0 0 0 0 0 0 0 0 0 0 0 0 0 0 0 0 0 0 0 0 0 0 0 0 0 0 0 0 0 0 0 0 0
0 0 0 0 0 0 0 0 0 0 0 0 0 0 0 0 0 0 0 0 0 0 0 0 0 0 0 0 0 0 0 0 0 0 0 0 0 0 0 0 0 0 0
0 0 0 0 0 0 0 0 0 0 0 0 0 0 0 0 0 0 0 0 0 0 0 0 0 0 0 0 0 0 0 0 0 0 0 0 0 0 0 0 0 0 0
0 0 0 0 0 0 0 0 0 0 0 0 0 0 0 0 0 0 0 0 0 0 0 0 0 0 0 0 0 0 0 0 0 0 0 0 0 0 0 0 0 0 0
0 0 0 0 0 0 0 0 0 0 0 0 0 0 0 0 0 0 0 0 0 0 0 0 0 0 0 0 0 0 0 0 0 0 0 0 0 0 0 0 0 0 0
0 0 0 0 0 0 0 0 0 0 0 0 0 0 0 0 0 0 0 0 0 0 0 0 0 0 0 0 0 0 0 0 0 0 0 0 0 0 0 0 0 0 0
0 0 0 0 0 0 0 0 0 0 0 0 0 0 0 0 0 0 0 0 0 0 0 0 0 0 0 0 0 0 0 0 0 0 0 0 0 0 0 0 0 0 0
0 0 0 0 0 0 0 0 0 0 0 0 0 0 0 0 0 0 0 0 0 0 0 0 0 0 0 0 0 0 0 0 0 0 0 0 0 0 0 0 0 0 0
0 0 0 0 0 0 0 0 0 0 0 0 0 0 0 0 0 0 0 0 0 0 0 0 0 0 0 0 0 0 0 0 0 0 0 0 0 0 0 0 0 0 0
0 0 0 0 0 0 0 0 0 0 0 0 0 0 0 0 0 0 0 0 0 0 0 0 0 0 0 0 0 0 0 0 0 0 0 0 0 0 0 0 0 0 0
0 0 0 0 0 0 0 0 0 0 0 0 0 0 0 0 0 0 0 0 0 0 0 0 0 0 0 0 0 0 0 0 0 0 0 0 0 0 0 0 0 0 0
0 0 0 0 0 0 0 0 0 0 0 0 0 0 0 0 0 0 0 0 0 0 0 0 0 0 0 0 0 0 0 0 0 0 0 0 0 0 0 0 0 0 0
0 0 0 0 0 0 0 0 0 0 0 0 0 0 0 0 0 0 0 0 0 0 0 0 0 0 0 0 0 0 0 0 0 0 0 0 0 0 0 0 0 0 0
0 0 0 0 0 0 0 0 0 0 0 0 0 0 0 0 0 0 0 0 0 0 0 0 0 0 0 0 0 0 0 0 0 0 0 0 0 0 0 0 0 0 0
0 0 0 0 0 0 0 0 0 0 0 0 0 0 0 0 0 0 0 0 0 0 0 0 0 0 0 0 0 0 0 0 0 0 0 0 0 0 0 0 0 0 0
0 0 0 0 0 0 -0 -0 0 0 0 0 0 0 0 0 0 0 0 0 0 0 0 0 0 0 0 0 0 0 0 0 0 0 0 0 0 0 0 0 0 0 0
0 0 0 0 0 0 0 0 0 0 0 0 0 0 0 0 0 0 0 0 0 0 0 0 0 0 0 0 0 0 0 0 0 0 0 0 0 0 0 0 0 0 0
0 0 0 0 0 0 0 0 0 0 0 0 0 0 0 0 0 0 0 0 0 0 0 0 0 0 0 0 0 0 0 0 0 0 0 0 0 0 0 0 0 0 0
0 0 0 0 0 0 0 0 0 0 0 0 0 0 0 0 0 0 0 0 0 0 0 0 0 0 0 0 0 0 0 0 0 0 0 0 0 0 0 0 0 0 0
Wind_Speed
7 6 7 8 8 8 9 9 9 8 7 5 5 4 4 3 3 2 3 3 2 2 2 1 1 1 1 1 1 1 1 1 1 2 3 2 3 3 3 3 3 4 4
7 7 7 8 9 9 10 9 9 9 8 6 5 3 4 3 3 2 2 2 2 2 1 2 1 2 1 2 2 1 1 1 1 2 2 3 3 2 3 3 3 4 4
7 7 8 8 8 9 9 8 9 9 9 7 5 4 3 3 3 3 2 2 2 2 1 1 2 2 2 2 2 2 2 2 1 2 2 3 3 3 2 4 4 4 4
6 6 7 7 8 8 7 8 9 9 8 8 7 8 6 5 4 3 3 3 2 2 2 2 1 2 2 2 2 2 2 3 2 2 2 3 3 4 4 3 3 5 5
5 6 6 6 6 6 6 7 8 8 8 8 8 8 6 4 3 3 4 3 2 2 2 2 1 1 2 2 2 2 3 3 3 2 2 3 3 5 5 6 5 4 4
4 4 4 5 5 5 6 7 8 8 8 8 8 8 7 5 5 5 4 3 2 2 2 2 1 1 1 2 2 2 3 3 4 3 3 3 3 3 4 6 6 6 5
3 3 4 5 5 6 6 7 8 8 8 8 7 7 7 6 6 5 5 4 3 2 2 2 2 1 1 2 2 3 3 4 4 4 4 4 4 4 5 5 6 7 6
1 2 3 4 4 6 6 7 7 7 7 7 6 6 6 4 3 4 4 3 2 2 2 2 2 2 2 2 2 3 3 3 4 4 5 4 4 4 4 5 5 6 6
1 2 3 3 4 5 5 6 7 6 6 6 6 5 5 4 4 4 3 2 2 2 2 2 2 2 2 2 3 3 3 3 4 4 5 4 3 4 4 4 5 5 7
2 3 3 3 3 3 4 4 5 5 5 5 5 4 4 4 4 3 3 3 2 2 2 2 2 2 2 3 3 3 3 4 4 3 5 4 4 4 4 4 4 5 7
3 3 3 4 4 4 4 4 3 4 4 4 4 4 4 4 3 3 3 2 2 2 2 2 2 2 2 3 3 3 3 4 4 4 5 5 5 4 4 4 4 5 5
3 4 4 4 4 4 4 4 3 3 3 4 4 4 4 4 3 3 3 2 2 1 1 1 2 2 3 3 3 4 4 4 5 5 5 5 4 6 5 4 5 5 5
4 4 4 4 4 4 3 3 3 3 3 3 4 4 4 3 3 2 2 2 1 1 1 2 2 2 3 3 3 4 4 5 5 5 5 5 5 6 5 5 5 5 5
4 4 4 4 4 4 3 4 3 3 3 3 3 3 3 2 2 2 1 1 1 1 1 1 2 2 3 3 3 4 4 5 4 4 5 5 6 6 6 5 5 5 5
3 3 3 3 4 3 3 3 3 3 3 3 3 2 2 2 2 1 1 1 1 1 1 1 2 2 3 3 3 4 4 4 4 4 4 5 5 7 6 5 5 5 4
2 3 3 3 3 3 3 3 3 2 2 3 2 2 2 2 1 1 0 0 1 1 1 2 2 3 2 3 4 4 4 4 4 4 4 4 5 5 6 6 7 7 6
3 2 2 2 2 2 2 2 2 2 3 3 2 2 2 1 1 0 0 1 1 1 1 2 3 3 3 4 4 4 4 4 4 4 4 4 4 5 4 4 5 6 6
3 2 2 2 2 2 2 2 2 2 2 2 2 2 1 1 1 0 1 1 1 1 2 2 3 3 3 4 4 4 4 4 4 4 4 4 4 3 4 4 4 4 5
2 2 2 2 2 2 2 2 2 2 2 2 2 2 2 1 1 1 1 1 1 2 2 2 3 3 3 3 4 4 3 3 3 3 3 3 3 4 5 4 4 5 4
2 2 2 2 3 2 2 2 2 2 1 1 2 2 2 2 2 2 2 2 2 2 2 2 3 3 3 3 3 4 2 3 2 2 2 3 3 4 5 4 4 5 5
3 2 2 2 2 2 1 2 2 1 2 2 2 2 2 2 2 2 2 2 1 2 2 2 2 2 3 3 3 3 2 2 2 2 2 2 3 5 5 5 4 5 6
3 3 2 2 2 2 1 2 2 2 2 1 1 2 2 2 2 2 2 1 1 1 2 2 2 2 2 3 3 3 3 3 3 3 2 2 4 5 6 4 4 5 6
2 2 2 2 2 2 2 1 2 2 2 1 1 2 2 2 2 2 2 1 1 1 1 1 2 2 2 2 3 3 4 4 3 2 3 4 5 5 4 3 5 5 3
1 1 2 1 1 2 2 2 2 2 2 2 2 2 2 2 2 2 2 1 1 1 2 2 2 2 2 2 2 2 2 2 2 2 2 4 4 3 3 4 3 3 3
1 1 1 1 2 2 2 2 2 2 2 2 2 2 2 2 2 2 2 2 2 2 2 2 2 2 3 3 5 4 3 3 2 3 2 2 2 2 2 2 3 3 3
0 1 1 1 1 2 2 2 2 2 2 2 2 2 2 2 2 2 2 2 2 3 3 3 3 3 4 5 5 5 5 4 3 3 2 2 2 3 3 3 3 3 3
Wind_Direction
197 188 190 187 182 179 178 176 174 169 164 160 161 162 164 158 153 145 150 160 159 169 175 175 174 199 220 238 247 250 251 288 308 286 288 271 255 263 276 280 291 296 301
196 189 186 186 187 185 184 181 180 174 174 172 164 161 152 158 153 151 154 155 157 165 183 191 197 206 220 226 233 233 246 261 277 287 289 284 258 247 269 272 282 291 295
206 196 192 190 188 189 188 185 182 179 177 168 154 140 134 139 161 168 166 170 172 173 190 211 215 215 227 228 230 234 238 244 247 276 286 289 289 305 265 273 278 288 294
216 205 200 194 192 190 186 187 182 179 175 170 171 169 176 180 185 176 172 172 178 183 188 204 221 224 230 230 230 235 245 245 243 250 268 283 300 291 291 282 287 293 293
220 211 205 200 193 186 183 184 179 177 175 178 179 184 188 182 164 165 171 175 174 181 184 197 215 235 242 240 238 236 239 240 247 249 259 263 272 272 278 288 299 295 296
225 217 199 191 182 176 177 178 177 176 176 178 182 188 186 177 170 176 176 179 175 178 180 199 212 229 249 256 252 246 242 245 249 252 252 258 262 272 276 284 297 300 304
218 203 185 180 173 172 172 174 174 174 176 178 183 186 186 185 184 182 184 183 184 189 189 206 221 226 244 256 257 248 246 247 250 250 254 257 263 273 276 282 292 296 299
182 182 179 177 171 170 169 170 171 171 173 177 180 182 182 182 181 183 184 191 192 188 190 218 232 239 246 255 258 257 254 251 252 256 257 257 262 265 267 273 287 295 293
105 136 151 157 159 162 166 168 168 167 170 173 172 174 176 175 171 172 177 184 183 177 191 215 232 242 251 261 266 263 263 263 257 257 258 259 262 264 267 269 271 279 289
88 98 116 125 133 143 147 152 161 163 166 167 166 167 169 167 164 164 168 170 176 184 197 215 237 250 259 263 264 267 272 270 269 266 263 265 268 269 266 264 267 269 277
89 89 94 101 108 111 118 127 139 145 151 155 156 157 155 157 159 161 165 167 174 187 203 222 243 254 262 266 266 268 271 273 277 276 272 269 269 270 269 268 266 268 271
82 86 89 97 103 106 108 114 120 129 137 144 147 146 145 147 152 155 160 167 174 182 207 227 242 256 262 265 266 272 274 273 276 278 277 279 279 273 273 271 271 271 270
81 82 86 89 93 96 95 96 101 104 112 127 137 138 140 143 147 149 150 161 177 189 212 230 245 258 267 270 270 271 272 274 276 279 280 284 287 284 280 277 275 274 275
86 83 82 82 83 86 88 86 88 92 99 112 123 127 128 131 134 133 143 165 193 206 227 245 259 268 271 270 271 271 273 276 280 283 284 285 284 286 289 283 282 286 285
97 90 83 78 78 77 79 81 80 81 90 99 107 108 103 102 107 114 137 179 222 232 244 257 268 271 269 271 274 273 274 276 281 284 288 291 296 298 295 294 295 291 285
115 100 89 78 72 69 72 74 70 68 77 86 86 92 98 96 97 100 113 219 243 245 252 261 264 270 276 285 278 278 272 275 277 283 288 289 289 295 297 298 297 296 290
138 125 106 86 67 57 62 66 64 66 72 73 70 70 84 92 88 81 160 278 269 264 264 269 267 269 282 284 277 275 276 272 276 280 284 290 295 297 292 297 297 301 302
142 134 117 83 59 54 60 65 69 71 69 65 56 44 47 49 30 1 296 291 279 267 264 269 271 273 283 289 277 276 269 270 273 277 281 283 291 303 306 304 306 311 312
130 109 95 83 71 62 63 79 77 74 66 47 29 20 8 354 327 309 305 298 279 270 269 271 272 275 286 291 279 276 266 267 275 285 292 292 294 313 311 304 306 309 314
98 90 81 71 64 54 64 82 76 68 41 7 353 353 352 331 313 307 301 289 275 274 275 274 278 280 287 300 291 280 264 265 277 291 296 306 308 312 311 303 303 303 310
84 81 83 68 46 34 56 69 54 19 348 337 334 341 345 324 316 311 301 294 278 276 278 282 288 289 297 309 312 299 281 272 278 284 290 299 311 311 313 309 302 302 306
84 78 74 59 39 25 38 51 27 356 340 332 335 338 335 327 314 310 309 304 283 278 280 284 300 306 312 320 322 320 310 297 284 287 292 302 313 311 312 308 310 311 307
82 77 83 66 38 20 15 23 353 341 326 324 330 329 325 318 307 304 303 301 286 274 283 289 298 311 315 327 338 332 328 320 300 297 307 310 311 307 304 317 319 311 303
71 69 72 57 25 11 0 344 332 325 317 319 323 318 313 313 315 307 301 294 279 272 278 286 294 306 311 315 320 318 316 312 298 293 304 307 308 302 308 311 309 304 304
37 33 41 17 351 349 347 343 335 322 313 316 315 311 305 303 313 315 314 299 287 275 271 276 281 288 294 312 319 314 306 301 296 298 289 288 290 295 298 300 306 307 305
34 28 18 355 340 341 338 332 323 309 302 305 307 304 302 304 303 307 312 321 294 294 284 280 280 293 296 308 310 313 313 309 301 297 283 285 290 295 300 304 307 307 305